Tracking 19247 objects as of 25-Sep-2018
HD Live streaming from Space Station
objects crossing your sky now

ATLAS 5 CENTAUR R/B

Track ATLAS 5 CENTAUR R/B now!


NORAD ID: 39167
Int'l Code: 2013-023B
Perigee: 20,551.3 km
Apogee: 21,437.0 km
Inclination: 56.5 °
Period: 750.9 minutes
Semi major axis: 27365 km
RCS: 2.5119 m2 (large)
Launch date: May 15, 2013
Source: United States (US)
Launch site: AIR FORCE EASTERN TEST RANGE (AFETR)

Note: This is a ROCKET BODY
aabbcc
Your satellite tracking list
Your tracking list is empty




NASA's NSSDC Master Catalog

Two Line Element Set (TLE):
1 39167U 13023B   18267.53740674 -.00000070 +00000-0 +00000-0 0  9993
2 39167 056.4871 028.6366 0161838 322.7475 036.1406 01.91781526037456
Source of the keplerian elements: AFSPC